Location: Newark
(47.9264°N, 3.6000°E)
Time: 01:04:51
(UTC+00:00)

Envisat - Visible Passes

Search period start: 29 March 2020 00:00
Search period end: 08 April 2020 00:00
Orbit: 764 x 766 km, 98.1° (Epoch: 28 March)

Date Brightness Start Highest point End Pass type
(mag) Time Alt. Az. Time Alt. Az. Time Alt. Az.
29 Mar 6.3 04:58:13 10° NE 05:00:59 14° E 05:03:44 10° ESE visible
30 Mar 6.3 18:59:09 10° WSW 19:01:33 13° W 19:03:56 10° WNW visible
01 Apr 6.6 04:47:51 10° ENE 04:49:30 11° E 04:51:08 10° ESE visible
02 Apr 6.1 18:46:54 10° SW 18:50:04 17° W 18:53:17 10° NW visible
07 Apr 6.4 19:02:29 10° WSW 19:04:27 12° W 19:06:25 10° WNW visible
